Wind_Speed
3 3 3 3 3 4 7 8 6 6 9 10 9 8 9 8 7 7 7 6 6 7 7 6 6 7 7 8 8 9 11 12 12 12 12 12 11 12 14 15 15 15 16 16 15 14 14 14 13
4 4 2 2 2 4 5 6 7 8 9 9 8 7 8 8 8 8 7 6 5 6 6 6 6 7 6 6 7 8 9 10 10 9 9 9 9 9 10 11 12 12 13 13 14 14 13 11 11
6 7 6 4 2 1 4 5 6 7 7 9 10 9 8 8 9 8 7 7 6 5 4 4 4 5 5 5 5 6 7 7 7 6 6 6 6 6 7 9 10 10 11 12 12 12 11 10 9
7 8 7 6 4 3 2 3 4 4 5 6 7 9 10 9 9 8 9 9 8 7 6 5 4 4 4 5 5 6 5 4 4 3 3 3 3 4 5 6 7 8 9 11 12 12 11 9 7
9 9 9 8 6 5 4 1 2 3 5 6 7 8 9 9 10 10 10 11 10 9 8 7 6 6 5 5 5 5 4 4 4 4 4 4 4 4 5 6 7 9 10 11 11 11 11 10 8
14 14 13 12 12 9 6 3 3 3 6 9 8 7 7 8 9 9 10 10 11 11 11 10 8 8 7 5 4 4 4 3 4 4 4 4 5 6 7 9 10 12 14 15 14 12 11 11 10
17 18 17 16 15 14 11 7 3 1 5 7 7 5 4 4 6 6 7 7 9 10 10 10 9 8 7 6 5 5 5 5 5 6 7 9 11 12 12 13 14 15 16 16 15 13 11 10 10
20 20 20 19 18 17 15 10 5 4 6 7 8 6 3 4 6 7 8 8 8 8 8 8 9 9 9 8 7 7 9 10 11 11 12 13 15 16 18 19 19 18 18 18 19 17 15 13 11
24 23 21 20 18 17 14 11 8 5 5 7 7 5 5 8 11 12 12 13 13 11 11 10 11 11 12 13 13 14 15 16 17 17 16 17 18 19 21 22 22 22 21 22 23 23 20 17 16
27 27 24 22 20 18 16 15 12 7 7 6 4 3 7 11 16 18 18 19 19 18 17 16 16 16 17 18 19 20 21 22 22 22 23 22 22 23 24 26 26 26 25 25 25 25 23 22 21
27 30 28 25 22 21 21 20 15 11 10 10 10 10 13 15 19 21 23 24 25 24 23 23 22 22 23 23 25 26 27 27 28 28 28 28 29 29 29 30 30 30 30 29 28 27 27 27 27
23 31 31 27 24 24 24 22 19 16 14 15 16 17 20 23 25 26 28 29 30 29 29 28 28 28 28 29 29 30 31 32 33 32 32 33 34 34 34 33 33 33 33 33 32 32 32 31 31
22 26 29 27 26 27 27 25 23 22 20 20 22 24 27 29 31 32 31 30 30 31 31 32 33 34 35 35 35 35 35 35 36 36 36 37 38 38 38 36 35 35 36 37 37 36 36 35 34
27 25 25 25 26 27 28 29 28 26 26 27 29 31 33 34 34 33 29 27 29 30 31 32 33 35 37 38 39 40 41 40 39 39 40 41 42 42 42 40 38 37 38 40 40 39 39 39 37
31 29 27 27 29 30 32 32 31 31 32 33 34 36 37 35 33 30 27 27 28 28 28 28 29 30 33 35 36 38 39 40 40 41 42 43 42 43 44 42 39 38 39 40 40 40 40 41 40
34 33 32 33 34 34 35 34 33 35 36 36 36 36 36 32 29 28 28 29 29 28 28 27 28 28 30 32 34 35 35 36 37 38 39 39 40 40 39 39 38 39 40 40 41 40 39 39 39
37 37 37 37 38 38 38 36 35 36 37 36 36 34 31 27 26 27 30 31 30 28 27 25 25 27 28 29 31 33 34 35 37 39 38 38 39 40 40 39 38 38 39 40 42 42 42 43 43
33 36 38 39 39 39 38 37 35 34 34 33 33 30 25 24 27 30 33 32 29 26 25 24 26 28 28 26 26 27 29 32 34 37 38 39 40 40 40 39 39 39 40 41 42 43 44 45 44
29 32 33 35 36 37 35 35 34 31 31 30 29 27 25 27 30 32 31 29 27 26 27 28 29 29 26 26 26 27 28 29 30 32 34 35 37 37 37 36 35 36 37 38 40 42 43 44 44
28 30 30 32 32 32 32 32 32 29 27 28 28 29 29 31 32 32 29 27 27 28 30 31 31 29 28 28 29 29 30 31 33 34 35 35 35 35 36 35 34 34 35 35 36 38 39 41 41
25 28 30 31 31 30 31 31 31 29 29 30 30 31 32 33 35 33 29 27 28 32 34 32 30 29 29 28 28 29 30 31 32 33 34 36 37 37 38 38 37 37 37 35 34 34 35 37 38
20 23 25 27 28 30 31 32 32 33 33 34 34 34 34 36 35 32 29 28 30 32 31 29 29 30 31 30 29 28 28 29 30 31 32 34 37 39 40 40 40 39 39 37 36 35 35 35 36
18 19 21 23 25 28 32 36 37 37 38 38 38 37 36 32 28 26 27 28 29 29 28 28 28 29 27 24 22 22 24 26 29 31 33 34 36 37 39 41 42 42 41 39 38 37 36 35 35
12 13 16 17 18 20 24 29 32 33 35 36 34 31 28 27 25 26 27 26 26 27 27 27 26 23 20 18 18 21 23 25 28 30 32 35 36 37 37 39 41 42 42 42 40 39 38 36 36
11 13 15 15 15 16 18 19 19 20 22 23 23 24 25 27 27 26 23 23 25 27 26 24 22 21 20 22 24 25 27 28 29 30 33 35 36 36 37 38 39 40 40 41 42 42 41 38 38
11 12 14 15 15 15 16 15 15 16 18 20 22 24 25 25 22 21 21 23 25 25 23 22 22 23 24 26 28 30 31 32 32 33 34 36 37 37 37 37 38 39 39 40 41 42 42 41 40
11 11 12 14 15 16 15 14 14 16 18 21 25 26 25 22 20 21 22 25 26 26 26 26 27 28 29 30 32 34 35 34 34 34 34 36 37 38 38 37 36 36 37 37 38 39 40 41 41
10 11 13 17 19 18 16 15 16 17 19 22 24 24 23 23 24 26 27 29 30 32 32 32 33 33 32 33 34 36 38 38 37 36 36 35 37 39 40 38 35 34 34 33 33 34 35 37 38
14 15 16 18 20 23 21 19 22 23 25 27 28 29 31 31 32 33 35 37 38 39 40 40 40 38 35 34 35 38 40 42 40 39 38 37 38 40 40 38 34 33 32 31 30 30 31 33 34
18 20 22 24 25 26 28 27 25 26 27 30 33 35 37 38 39 40 43 44 46 47 48 49 49 48 44 40 40 41 41 42 43 41 39 38 38 39 40 37 34 31 29 28 27 27 28 29 30
Wind_Direction
97 92 56 77 79 71 73 68 58 67 76 84 84 72 65 67 66 56 54 66 70 68 60 48 42 39 36 40 40 34 32 34 38 43 47 47 45 41 40 40 37 33 34 38 41 39 36 37 38
187 181 185 143 97 76 84 81 61 49 41 43 44 40 45 48 45 49 44 49 59 63 56 45 43 43 39 39 38 32 29 27 27 32 38 43 44 39 34 31 28 23 20 21 26 27 28 32 34
223 227 230 228 221 113 110 102 80 57 39 23 10 0 5 18 21 21 17 13 20 31 29 27 28 27 23 18 12 8 11 25 32 32 35 38 37 28 19 15 15 11 5 360 1 7 11 18 22
224 228 224 224 224 247 228 146 104 70 59 37 7 345 347 357 360 360 353 348 347 351 347 339 339 345 351 353 352 350 352 7 22 17 12 8 4 1 359 358 359 358 353 349 346 348 352 356 1
218 213 204 204 209 234 259 260 110 103 91 53 20 354 349 348 344 343 341 338 337 332 328 327 332 341 346 349 348 345 346 350 352 348 340 330 323 322 327 331 331 331 330 331 332 333 336 337 337
212 218 214 215 222 237 271 323 33 81 71 43 24 353 346 351 342 333 335 336 333 327 323 328 341 348 346 337 331 330 330 333 334 332 326 319 319 318 318 319 317 315 316 316 315 318 324 329 330
215 227 230 233 240 251 264 285 310 124 97 52 31 2 342 347 345 337 340 343 339 336 334 334 338 341 337 331 324 322 320 314 312 312 307 307 311 310 309 308 308 307 307 309 308 310 315 321 323
219 233 240 245 252 260 268 274 276 195 129 87 73 43 16 356 340 339 336 333 329 326 327 332 333 334 330 323 316 312 311 306 302 301 296 295 298 300 301 301 301 299 299 301 302 304 306 306 303
220 231 241 251 259 268 279 291 298 249 178 130 118 48 11 340 326 321 317 312 307 301 297 298 302 305 304 303 298 296 296 295 294 294 293 291 290 292 295 296 296 296 296 296 297 298 300 299 295
219 227 236 249 262 270 275 292 300 266 236 208 199 307 332 326 319 312 306 300 293 287 279 275 278 285 287 288 287 286 287 287 287 289 291 290 289 290 292 293 292 290 289 290 291 291 289 290 290
219 224 233 241 253 263 273 286 291 276 268 271 274 290 307 309 307 301 296 294 292 290 283 278 275 276 278 279 280 282 283 284 284 285 287 287 286 286 288 289 288 286 285 285 286 284 282 282 283
226 226 233 238 244 252 266 278 285 285 285 288 293 299 300 299 296 294 292 290 289 288 287 285 282 280 278 278 277 276 277 278 278 280 281 282 282 281 282 282 282 280 279 279 279 276 275 276 277
236 232 237 244 249 252 258 267 276 281 287 289 291 292 292 292 292 293 291 287 284 283 283 283 282 281 279 278 276 275 275 276 277 278 278 277 278 279 279 277 275 276 276 276 274 272 271 269 270
240 239 242 247 253 257 260 264 269 275 280 283 285 286 285 286 288 289 287 284 285 285 284 283 281 280 280 279 278 276 275 275 276 276 276 276 277 277 274 271 270 272 274 274 273 272 270 267 267
241 243 244 246 246 248 255 262 270 275 278 280 282 282 282 285 288 288 286 289 292 291 288 284 283 282 283 283 282 281 281 281 281 280 279 278 278 278 276 271 271 273 273 275 276 276 275 272 271
239 243 245 248 250 251 256 263 269 272 275 276 277 278 280 284 288 291 294 297 298 297 295 292 287 282 281 281 281 281 282 283 282 282 280 278 277 279 279 279 277 274 271 271 273 275 275 273 273
242 244 247 251 255 258 260 263 265 267 268 268 269 273 277 285 294 297 299 300 300 297 296 295 292 285 281 283 284 283 283 283 282 281 279 278 279 281 281 279 277 275 273 272 272 271 271 274 275
240 244 248 252 256 260 264 266 264 261 260 263 267 268 269 284 293 295 300 303 302 298 297 300 305 299 292 290 291 291 290 290 289 287 285 284 282 282 281 279 276 274 274 273 273 272 271 273 273
238 244 248 252 256 258 258 260 261 258 258 260 260 262 275 288 295 301 305 305 302 299 302 307 311 309 301 295 297 296 295 293 292 290 287 285 283 283 283 282 281 279 278 277 276 274 272 270 270
238 241 243 246 250 254 256 255 254 254 255 256 260 267 280 291 299 304 305 303 301 300 301 306 308 308 306 302 301 301 299 297 294 291 288 286 285 284 283 281 281 280 280 280 279 276 273 271 269
244 245 243 243 244 249 255 260 263 264 265 268 273 279 287 296 301 300 298 299 301 302 305 309 311 313 311 309 308 308 307 305 302 299 293 288 285 283 282 280 279 278 278 277 277 276 274 271 269
258 258 258 255 252 249 253 256 259 264 268 273 278 283 288 293 293 290 290 294 298 301 305 310 312 311 312 313 314 316 317 316 313 309 303 294 286 281 278 278 277 276 274 273 272 272 272 272 271
272 273 272 272 267 260 255 256 258 261 266 271 275 280 285 286 283 281 286 292 296 300 304 305 303 304 307 312 319 326 328 329 327 324 318 309 300 292 285 279 276 275 274 275 274 272 272 272 273
285 285 288 289 286 278 270 266 265 264 266 270 274 278 278 276 277 281 286 290 293 295 296 295 296 300 306 311 317 322 325 327 328 327 325 319 311 302 295 287 281 276 274 274 274 273 274 273 271
295 296 296 292 291 291 287 282 280 276 274 273 275 275 272 273 278 282 284 285 285 284 284 288 294 300 304 305 308 313 317 319 321 323 326 325 319 311 303 294 286 279 275 273 272 272 272 272 271
298 295 292 290 291 293 294 295 292 283 278 275 276 277 277 278 279 279 277 274 274 276 279 285 293 299 303 305 307 311 315 317 318 322 325 327 326 320 313 303 291 280 275 272 271 270 270 270 269
299 298 288 284 286 288 290 295 291 283 280 276 276 277 280 282 281 276 273 272 275 281 289 297 303 307 309 311 313 313 315 316 317 319 322 325 327 327 321 313 303 290 280 274 270 268 267 267 267
307 300 290 286 290 289 287 285 281 283 286 283 281 282 287 290 289 286 285 287 292 297 302 305 306 309 311 313 315 315 314 314 314 315 315 319 324 328 326 318 310 301 291 282 276 271 269 268 267
320 312 303 298 299 300 298 292 289 288 289 289 288 286 288 292 295 296 295 296 298 301 304 306 307 306 305 307 312 312 310 310 311 311 312 312 317 324 326 321 315 308 300 292 286 281 276 272 270
322 318 313 308 307 306 305 303 297 291 287 287 289 291 293 294 296 297 297 298 299 301 303 305 306 305 303 303 307 308 306 304 305 306 308 308 311 319 325 323 320 315 307 298 292 288 281 275 270
Height
5919 5920 5920 5920 5921 5920 5920 5920 5919 5918 5918 5919 5920 5921 5921 5921 5922 5924 5922 5920 5919 5918 5918 5919 5919 5919 5918 5917 5916 5915 5914 5913 5913 5912 5911 5910 5910 5909 5908 5907 5907 5906 5905 5905 5904 5903 5902 5901 5900
5920 5921 5922 5922 5922 5921 5922 5921 5920 5920 5920 5920 5921 5922 5922 5922 5922 5922 5921 5920 5919 5918 5918 5918 5918 5918 5917 5916 5915 5914 5913 5912 5912 5912 5911 5910 5910 5909 5908 5907 5907 5906 5905 5905 5904 5904 5903 5902 5901
5921 5921 5923 5923 5923 5923 5923 5922 5922 5922 5922 5922 5922 5923 5923 5923 5922 5921 5921 5920 5920 5919 5918 5917 5916 5916 5915 5915 5914 5913 5912 5911 5911 5911 5910 5910 5909 5908 5908 5907 5907 5906 5905 5904 5904 5903 5902 5902 5901
5921 5921 5922 5924 5923 5923 5923 5924 5924 5924 5924 5923 5923 5923 5923 5923 5922 5921 5920 5919 5919 5918 5918 5917 5915 5914 5914 5913 5913 5912 5912 5911 5910 5910 5909 5908 5907 5907 5906 5906 5905 5905 5905 5904 5903 5902 5901 5900 5900
5920 5921 5921 5922 5923 5924 5924 5925 5925 5925 5924 5924 5923 5923 5923 5922 5921 5920 5919 5918 5918 5917 5917 5916 5915 5914 5913 5912 5912 5911 5911 5910 5910 5909 5908 5908 5906 5905 5905 5904 5904 5903 5903 5902 5902 5901 5900 5899 5898
5920 5920 5920 5920 5922 5923 5924 5924 5924 5925 5924 5924 5923 5923 5922 5922 5921 5920 5919 5918 5918 5918 5917 5916 5915 5914 5913 5912 5911 5910 5909 5909 5908 5908 5907 5907 5906 5905 5904 5903 5902 5902 5901 5900 5899 5899 5898 5897 5896
5918 5918 5918 5919 5920 5921 5923 5924 5924 5924 5924 5923 5923 5923 5922 5921 5921 5920 5919 5918 5918 5917 5916 5915 5914 5913 5912 5912 5911 5910 5909 5908 5908 5907 5907 5906 5905 5904 5903 5902 5901 5900 5899 5898 5897 5897 5896 5895 5895
5916 5917 5916 5917 5919 5920 5922 5923 5924 5923 5923 5923 5923 5923 5922 5921 5920 5919 5918 5918 5917 5917 5916 5914 5913 5912 5911 5911 5910 5909 5908 5908 5907 5906 5905 5904 5904 5903 5902 5901 5899 5898 5897 5896 5896 5895 5895 5894 5893
5913 5915 5914 5915 5917 5918 5919 5921 5922 5922 5921 5922 5923 5923 5922 5920 5919 5918 5917 5916 5915 5914 5913 5912 5911 5910 5909 5908 5908 5907 5906 5905 5905 5903 5902 5901 5901 5900 5899 5898 5896 5895 5894 5894 5893 5893 5893 5892 5891
5910 5912 5913 5914 5915 5915 5916 5917 5918 5919 5920 5921 5923 5922 5921 5919 5917 5916 5914 5913 5912 5911 5910 5909 5907 5906 5905 5904 5903 5903 5903 5902 5901 5900 5899 5897 5896 5896 5895 5894 5893 5891 5890 5890 5889 5889 5888 5888 5888
5907 5908 5910 5913 5913 5912 5912 5913 5915 5916 5917 5919 5920 5920 5919 5918 5916 5914 5912 5910 5908 5908 5906 5905 5903 5902 5901 5900 5899 5898 5898 5897 5896 5895 5894 5892 5891 5890 5889 5888 5887 5886 5885 5884 5884 5884 5883 5883 5883
5905 5905 5907 5910 5911 5911 5909 5910 5911 5912 5914 5915 5916 5916 5916 5915 5913 5911 5909 5906 5904 5902 5901 5900 5898 5897 5896 5894 5893 5892 5891 5890 5889 5888 5888 5886 5885 5884 5883 5882 5881 5879 5878 5877 5876 5876 5876 5876 5875
5902 5903 5904 5907 5908 5909 5908 5907 5908 5909 5910 5910 5911 5911 5911 5909 5908 5906 5904 5901 5898 5896 5894 5892 5891 5889 5888 5886 5885 5884 5883 5883 5882 5881 5880 5878 5877 5876 5875 5874 5873 5871 5870 5869 5868 5867 5867 5867 5867
5897 5899 5901 5903 5904 5904 5904 5903 5905 5906 5906 5906 5906 5906 5905 5903 5901 5899 5897 5895 5893 5890 5888 5885 5883 5880 5879 5877 5877 5876 5875 5875 5874 5872 5871 5869 5868 5866 5864 5863 5862 5863 5861 5860 5859 5859 5858 5857 5857
5891 5895 5897 5898 5897 5898 5899 5900 5901 5901 5901 5901 5900 5898 5897 5895 5894 5892 5891 5889 5887 5884 5882 5879 5876 5873 5871 5869 5868 5867 5866 5865 5864 5863 5861 5860 5858 5856 5854 5852 5852 5852 5853 5852 5850 5850 5849 5848 5847
5886 5888 5890 5890 5891 5893 5895 5897 5898 5896 5895 5894 5893 5891 5889 5888 5887 5885 5884 5882 5880 5878 5876 5873 5870 5868 5865 5863 5861 5860 5858 5856 5855 5853 5852 5851 5850 5848 5847 5845 5845 5844 5844 5844 5844 5842 5841 5839 5838
5880 5882 5883 5884 5884 5886 5888 5891 5892 5890 5889 5887 5886 5884 5883 5882 5881 5880 5878 5876 5874 5871 5868 5865 5863 5861 5858 5856 5854 5852 5851 5849 5847 5845 5844 5843 5842 5840 5839 5838 5837 5836 5835 5835 5835 5834 5833 5831 5831
5874 5874 5875 5876 5878 5879 5881 5882 5883 5882 5882 5881 5880 5879 5877 5877 5877 5875 5873 5869 5866 5863 5861 5859 5857 5854 5851 5849 5846 5845 5843 5841 5838 5837 5836 5834 5833 5831 5830 5829 5828 5827 5826 5826 5825 5824 5824 5823 5822
5867 5868 5869 5870 5871 5872 5873 5874 5875 5876 5877 5876 5875 5874 5872 5872 5871 5869 5866 5862 5859 5856 5854 5852 5849 5846 5843 5841 5839 5837 5835 5833 5831 5829 5827 5825 5823 5821 5820 5818 5817 5817 5816 5816 5815 5814 5813 5813 5812
5863 5863 5864 5865 5865 5866 5866 5867 5868 5869 5869 5869 5869 5868 5868 5867 5866 5863 5859 5856 5853 5850 5848 5846 5843 5839 5836 5834 5831 5829 5827 5825 5824 5821 5819 5816 5814 5812 5811 5809 5808 5807 5807 5806 5804 5803 5802 5802 5802
5859 5860 5860 5861 5861 5861 5861 5861 5861 5862 5862 5862 5862 5862 5861 5860 5859 5857 5854 5850 5847 5843 5840 5838 5834 5831 5829 5826 5824 5822 5819 5817 5815 5812 5810 5807 5805 5803 5801 5800 5799 5798 5798 5797 5795 5794 5792 5792 5792
5857 5858 5857 5857 5858 5858 5858 5856 5856 5855 5855 5855 5855 5855 5855 5855 5853 5850 5848 5845 5842 5838 5835 5832 5829 5826 5823 5820 5818 5815 5813 5810 5807 5804 5801 5798 5795 5792 5790 5789 5788 5788 5787 5786 5786 5785 5783 5782 5782
5854 5854 5853 5852 5852 5853 5852 5851 5851 5851 5850 5850 5850 5850 5849 5848 5846 5844 5842 5840 5837 5833 5830 5827 5824 5821 5818 5815 5812 5810 5807 5803 5800 5796 5792 5789 5785 5782 5780 5778 5776 5776 5775 5775 5774 5774 5773 5773 5773
5851 5851 5849 5848 5847 5847 5846 5846 5846 5847 5846 5846 5846 5845 5844 5843 5841 5840 5838 5835 5832 5829 5825 5822 5819 5817 5814 5811 5808 5805 5801 5798 5795 5790 5786 5781 5776 5772 5769 5766 5764 5762 5762 5762 5762 5762 5762 5762 5762
5849 5848 5847 5845 5844 5843 5842 5841 5842 5841 5841 5840 5840 5839 5838 5837 5836 5834 5832 5830 5826 5823 5819 5817 5814 5811 5809 5806 5803 5799 5796 5793 5789 5785 5780 5775 5769 5764 5759 5756 5753 5750 5749 5748 5749 5749 5750 5751 5751
5846 5845 5844 5843 5841 5840 5839 5838 5838 5837 5836 5835 5834 5832 5831 5830 5829 5828 5826 5823 5819 5816 5814 5811 5809 5806 5803 5799 5796 5792 5789 5785 5781 5777 5772 5767 5762 5757 5751 5746 5743 5740 5737 5736 5736 5737 5738 5739 5740
5843 5842 5841 5839 5838 5837 5836 5835 5834 5832 5831 5829 5827 5826 5825 5824 5823 5820 5818 5815 5811 5809 5806 5803 5801 5797 5793 5790 5786 5783 5780 5777 5773 5769 5764 5760 5755 5749 5743 5737 5733 5729 5727 5725 5725 5725 5726 5727 5728
5841 5839 5838 5836 5834 5833 5832 5830 5829 5827 5826 5824 5821 5819 5818 5817 5814 5811 5808 5805 5801 5798 5796 5793 5790 5787 5784 5781 5777 5774 5771 5768 5765 5761 5757 5752 5747 5741 5735 5729 5724 5720 5717 5716 5715 5715 5714 5715 5716
5839 5837 5834 5832 5830 5828 5826 5828 5825 5823 5821 5818 5815 5813 5810 5807 5804 5801 5797 5794 5791 5788 5785 5782 5780 5777 5774 5772 5769 5766 5763 5759 5756 5753 5749 5744 5740 5734 5729 5723 5717 5712 5709 5708 5707 5705 5705 5705 5705
5835 5833 5831 5829 5826 5823 5820 5821 5818 5816 5814 5811 5807 5804 5800 5797 5793 5789 5786 5783 5780 5776 5773 5770 5767 5765 5763 5761 5759 5757 5753 5750 5747 5744 5741 5737 5732 5727 5722 5716 5711 5706 5703 5700 5699 5697 5695 5695 5695